This is the latest recevied weather packets stored in our database for station/object AA6HF. If no packets are shown the sender has not sent any weather packets the latest 1 day(s).
| Time | Temp. | Humidity | Pressure | Rain* | Wind** | Luminosity | Snow |
|---|---|---|---|---|---|---|---|
| 1778058322 | 15° C | 55% | 1012.5 hPa | 0 mm | - | - | - |
| 1778058022 | 15.56° C | 54% | 1012.5 hPa | 0 mm | - | - | - |
| 1778057722 | 15.56° C | 52% | 1012.5 hPa | 0 mm | - | - | - |
| 1778057422 | 15.56° C | 51% | 1012.6 hPa | 0 mm | - | - | - |
| 1778057122 | 15.56° C | 51% | 1012.6 hPa | 0 mm | - | - | - |
| 1778056822 | 15.56° C | 51% | 1012.6 hPa | 0 mm | - | - | - |
| 1778056522 | 15.56° C | 52% | 1012.6 hPa | 0 mm | - | - | - |
| 1778055922 | 16.11° C | 51% | 1012.6 hPa | 0 mm | - | - | - |
| 1778055322 | 15.56° C | 52% | 1012.6 hPa | 0 mm | - | - | - |
| 1778055022 | 15.56° C | 53% | 1012.6 hPa | 0 mm | - | - | - |
| 1778054722 | 15.56° C | 54% | 1012.6 hPa | 0 mm | - | - | - |
| 1778053522 | 16.67° C | 50% | 1012.7 hPa | 0 mm | - | - | - |
| 1778053222 | 16.11° C | 51% | 1012.6 hPa | 0 mm | - | - | - |
| 1778050523 | 16.67° C | 49% | 1012.2 hPa | 0 mm | - | - | - |
| 1778049923 | 16.67° C | 49% | 1012 hPa | 0 mm | - | - | - |
| 1778049323 | 16.67° C | 48% | 1012 hPa | 0 mm | - | - | - |
| 1778049023 | 17.22° C | 47% | 1011.8 hPa | 0 mm | - | - | - |
| 1778048723 | 17.22° C | 46% | 1011.8 hPa | 0 mm | - | - | - |
| 1778048423 | 17.22° C | 45% | 1011.8 hPa | 0 mm | - | - | - |
| 1778048123 | 17.78° C | 43% | 1011.7 hPa | 0 mm | - | - | - |
| 1778047823 | 17.78° C | 43% | 1011.6 hPa | 0 mm | - | - | - |
| 1778047523 | 17.78° C | 43% | 1011.6 hPa | 0 mm | - | - | - |
| 1778047223 | 17.78° C | 43% | 1011.6 hPa | 0 mm | - | - | - |
| 1778046923 | 17.78° C | 43% | 1011.5 hPa | 0 mm | - | - | - |
| 1778046623 | 17.78° C | 44% | 1011.4 hPa | 0 mm | - | - | - |
* Rain latest hour (hover to see other rain measurements)
** Current wind speed in m/s (hover to see current wind gust speed)